Regional Weather Roundup
Issued by NWS Portland, ME

Current Version | Previous Version | Text Only | Print | Product List | Glossary Off
Versions: 1 2 3 4 5 6 7 8 9 10 11 12 13 14 15 16 17 18 19 20 21 22 23 24 25 26 27 28 29 30 31 32 33 34 35 36 37 38 39 40 41 42 43 44 45 46 47 48 49 50
572 ASUS41 KGYX 230610 RWRGYX WEATHER ROUNDUP FOR MAINE AND NEW HAMPSHIRE NATIONAL WEATHER SERVICE GRAY ME 200 AM EDT MON OCT 23 2017 MEZ002-005-006-010-012-015-018-020-021-024-026-027-029-230700- MAINE CITY SKY/WX TMP DP RH WIND PRES REMARKS PORTLAND CLOUDY 52 51 97 VRB3 30.41F FOG 6HR MIN TEMP: 52; 6HR MAX TEMP: 55; SANFORD CLOUDY 53 51 93 CALM 30.41S BAR HARBOR CLOUDY 48 46 93 CALM 30.42F WISCASSET CLOUDY 52 51 97 CALM 30.42F FOG 6HR MIN TEMP: 49; 6HR MAX TEMP: 54; ROCKLAND CLOUDY 53 53 100 SE3 30.41S FOG FRYEBURG NOT AVBL LEWISTONAUBURN CLOUDY 51 49 92 CALM 30.41F AUGUSTA FOG 50 49 96 CALM 30.42S VSB 1 6HR MIN TEMP: 50; 6HR MAX TEMP: 52; WATERVILLE CLOUDY 50 48 93 CALM 30.38F FOG BANGOR CLOUDY 50 42 74 NW5 30.42F 6HR MIN TEMP: 44; 6HR MAX TEMP: 51; GREENVILLE N/A 43 42 97 SE8 30.36F 6HR MIN TEMP: 43; 6HR MAX TEMP: 48; MILLINOCKET CLOUDY 47 42 83 VRB5 30.41F 6HR MIN TEMP: 41; 6HR MAX TEMP: 48; HOULTON CLEAR 43 38 82 VRB5 30.40S 6HR MIN TEMP: 41; 6HR MAX TEMP: 50; PRESQUE ISLE CLOUDY 42 34 73 SE8 30.39S 6HR MIN TEMP: 42; 6HR MAX TEMP: 47; FRENCHVILLE CLEAR 41 30 65 SE12 30.33F 6HR MIN TEMP: 40; 6HR MAX TEMP: 46; CARIBOU PTCLDY 43 33 68 S10 30.36F 6HR MIN TEMP: 41; 6HR MAX TEMP: 49; $$ NHZ002-005-008-009-011-012-014-230700- NEW HAMPSHIRE CITY SKY/WX TMP DP RH WIND PRES REMARKS PORTSMOUTH CLOUDY 55 52 90 CALM 30.39F ROCHESTER CLOUDY 52 49 89 CALM 30.40F 6HR MIN TEMP: 52; 6HR MAX TEMP: 54; NASHUA CLOUDY 55 53 93 CALM 30.40F MANCHESTER CLOUDY 55 53 93 CALM 30.39F 6HR MIN TEMP: 54; 6HR MAX TEMP: 56; CONCORD CLOUDY 53 51 93 CALM 30.40F 6HR MIN TEMP: 53; 6HR MAX TEMP: 55; LACONIA CLOUDY 51 50 96 SW5 30.40F PLYMOUTH CLOUDY 52 50 94 CALM 30.39F BERLIN FOG 35 34 96 CALM 30.36F VSB 3/4 6HR MIN TEMP: 34; 6HR MAX TEMP: 49; WHITEFIELD CLEAR 37 37 100 CALM 30.35F 6HR MIN TEMP: 36; 6HR MAX TEMP: 50; JAFFREY FOG 48 48 100 CALM 30.39F VSB 1/4 6HR MIN TEMP: 46; 6HR MAX TEMP: 59; KEENE FOG 41 37 87 S3 30.38F VSB 1/2 LEBANON CLEAR 43 42 97 CALM 30.35F FOG 6HR MIN TEMP: 42; 6HR MAX TEMP: 55; MT WASHINGTON PTCLDY 46 27 46 SW40G51 N/A 6HR MIN TEMP: 45; 6HR MAX TEMP: 47; $$ VTZ005-007-008-230700- VERMONT CITY SKY/WX TMP DP RH WIND PRES REMARKS ST JOHNSBURY N/A 45 44 97 MISG 30.33F BURLINGTON CLEAR 64 42 44 S10G21 30.26S $$ MAZ007-012-024-CTZ003-RIZ002-NYZ038-NYZ072-230700- SOUTHERN NEW ENGLAND AND NY CITY SKY/WX TMP DP RH WIND PRES REMARKS BOSTON CLOUDY 55 55 100 CALM 30.40F WORCESTER FOG 50 49 96 CALM 30.39F VSB<1/4 NANTUCKET FOG 55 55 100 S3 30.40F VSB 1/4 PROVIDENCE CLOUDY 51 50 96 CALM 30.40F FOG HARTFORD PTCLDY 46 45 96 CALM 30.37F ALBANY PTCLDY 49 42 77 CALM 30.31F NEW YORK CITY MOCLDY 62 59 90 CALM 30.35S $$ ANZ081-ANZ082-ANZ150-NHZ014-MEZ023>029-230700- COASTAL MARINE OBSERVATIONS STATION/POSITION TIME TEMP WIND PRES WAVE AIR SEA DIR/SP/G HT/PER (UTC) (F) (DEG/KT/KT) (MB) (FT/S) MOUNT DESERT ROC 0600 55 140/ 10/ 11 1029.9F MATINICUS ROCK 0500 54 140/ 6/ 7 1029.6S ISLE OF SHOALS 0500 54 340/ 6/ 7 1029.4S JEFFREYS LEDGE 0536 58 N/A 2/ 9 GEORGES BANK BUO 0450 61 59 1030.8 2/ 8 $$ .............KEY.............. WCI - WIND CHILL TC - TEMPERATURE IN CELSIUS VSB - VISIBILITY IN MILES HX - HEAT INDEX FAIR- INDICATES FEW OR NO CLOUDS BELOW 12,000 FT, WITH NO SIGNIFICANT WEATHER AND/OR OBSTRUCTIONS TO VISIBILITY.

USA.gov is the U.S. government's official web portal to all federal, state and local government web resources and services.